User: anonymous   Login
Location: Cronhütte
(48.9135°N, 9.6869°E)
Time: 16:27:33
(UTC+00:00)
Language:

Cosmos 2278 - Orbit

View from above orbital plane
View from above orbital plane
View from above satellite
View from above satellite

Ground track
Ground track

The orbit data is extracted from the following two-line orbital elements,

1 23087U 94023A   24196.56182925  .00000408  00000-0  23917-3 0  9995
2 23087  71.0540 356.7395 0010354 235.3106 124.7041 14.14107483559786
Epoch (UTC): 14 July 2024 13:29:02
Eccentricity: 0.0010354
inclination: 71.0540°
perigee height: 838 km
apogee height: 853 km
right ascension of ascending node: 356.7395°
argument of perigee: 235.3106°
revolutions per day: 14.14107483
mean anomaly at epoch: 124.7041°
orbit number at epoch: 55978

The dashed part of the orbit path shows where the satellite is in the earth's shadow,  

DLR